ニート彗星

240P/NEAT (2018)

English version
Home page
Updated on February 13, 2018

---------------------------------------------------------------------

・ プロフィール

・ 写真集

・ 軌道要素

Epoch 2018 May 2.0 TT = JDT 2458240.5
T 2018 May 15.87768 TT                                  MPCW
q   2.1337764            (2000.0)            P               Q
n   0.12934601     Peri.  352.09892     +0.37931194     -0.84132654
a   3.8722854      Node    74.92640     +0.86923298     +0.18137656
e   0.4489620      Incl.   23.50375     +0.31710641     +0.50918779
P   7.62
From 1943 observations 2002 Oct. 5-2018 Jan. 19, mean residual 0".8.
     Nongravitational parameters A1 = +2.00, A2 = +0.1238.

・ 星図

・ 光度変化

        m1 =  1.0 + 5 logΔ + 30   log r           [    ,-271]  (              〜2017年 8月17日)
        m1 = 10.0 + 5 logΔ +  7.5 log r(t + 400)  [-271,   0]  (2017年 8月17日〜2018年 5月15日)
        m1 =  7.5 + 5 logΔ + 20.0 log r           [   0,    ]  (2018年 5月15日〜              )

        ※ 灰色の曲線は、m1 = 7.5 + 5 logΔ + 20.0 log r の光度曲線です。

---------------------------------------------------------------------

軌道要素はM.P.E.C. 2018-B155に掲載されたものです。
星図はステラナビゲータ Ver.10 (アストロアーツ) で作成したものです。
光度グラフはComet for Windowsで作成したものです。

---------------------------------------------------------------------

Copyright(C) Seiichi Yoshida (comet@aerith.net). All rights reserved.